[[{"header":{"parameterUnit":"m.s-1","parameterCategory":1,"la1":30.2991,"la2":30.254,"lo1":-89.0895,"lo2":-89.0444,"dy":0.0017,"dx":0.0017,"nx":28,"ny":28,"refTime":"2025-03-27T03:00:00:Z","depth":0,"parameterNumber":2,"parameterNumberName":"U-component_of_WINDS"},"data":[0,0,0,0,0,0,0,0,0,0,0,0,0,0,0,0,0,0,0,0,0,0,0,0,0,0,0,0,0,0,0,0,0,0,0,0,0,0,0,0,0,0,0,0,0,0,0,0,0,0,0,0,0,0,0,0,0,0,-4.7636,-4.7638,0,-4.7776,-4.7778,-4.778,-4.7791,-4.7789,-4.7788,-4.7786,-4.793,-4.7935,-4.794,0,0,0,0,0,0,0,0,0,0,0,0,0,-4.7379,-4.7383,-4.7636,-4.7638,-4.7639,-4.7776,-4.7778,-4.778,-4.7791,-4.7789,-4.7787,-4.7786,-4.7928,-4.7935,-4.7941,0,0,0,0,0,0,0,0,0,0,0,0,0,-4.7502,-4.7385,-4.7636,-4.7661,-4.7665,-4.7776,-4.7778,-4.778,-4.7791,-4.7789,-4.7787,-4.7785,-4.7926,-4.7934,-4.7942,-4.8036,0,0,-4.7966,-4.7969,0,0,0,0,0,0,0,0,-4.7495,-4.7511,-4.7656,-4.766,-4.7664,-4.7764,-4.774,-4.7866,-4.7792,-4.7744,-4.7786,-4.7784,-4.7877,-4.7888,-4.792,-4.8043,-4.8049,-4.7967,-4.7971,-4.7975,-4.7977,0,0,0,0,0,0,0,-4.7486,-4.7505,-4.7691,-4.7658,-4.7663,-4.7666,-4.7681,-4.7764,-4.7821,-4.7748,-4.7749,-4.7765,-4.7878,-4.7912,-4.7923,-4.8051,-4.7966,-4.7973,-4.7978,-4.7981,-4.8259,-4.8262,0,0,0,0,0,0,-4.7473,-4.7498,-4.7687,-4.7696,-4.7572,-4.7673,-4.769,-4.7734,-4.782,-4.7831,-4.7767,-4.7765,-4.79,-4.7914,-4.7928,-4.8044,-4.7975,-4.7982,-4.7987,-4.8257,-4.826,-4.8263,0,0,0,0,0,0,-4.7467,-4.7489,-4.7681,-4.7597,-4.7622,-4.768,-4.773,-4.7738,-4.7772,-4.7835,-4.7845,-4.7791,-4.7899,-4.7917,-4.8009,-4.8049,-4.7986,-4.7993,-4.8254,-4.8258,-4.8261,-4.8277,0,0,0,0,0,0,-4.746,-4.7487,-4.7523,-4.7598,-4.7626,-4.776,-4.7732,-4.7742,-4.7785,-4.7784,-4.786,-4.787,-4.7898,-4.7998,-4.8017,-4.8059,-4.7999,-4.825,-4.8255,-4.826,-4.8273,-4.8281,-4.8288,0,0,0,0,0,-4.745,-4.7522,-4.7525,-4.7548,-4.7673,-4.7762,-4.7778,-4.7809,-4.7788,-4.7825,-4.7866,-4.7868,-4.8042,-4.8007,-4.8029,-4.8074,-4.8248,-4.8254,-4.826,-4.827,-4.8279,-4.8287,0,0,0,0,0,0,-4.7451,-4.7532,-4.7537,-4.7635,-4.7691,-4.7764,-4.7811,-4.7818,-4.7881,-4.7878,-4.7913,-4.793,-4.8021,-4.8057,-4.8016,-4.817,-4.8143,-4.8154,-4.8143,-4.8153,-4.816,-4.8148,-4.8005,0,0,0,0,0,-4.7462,-4.7527,-4.7596,-4.7676,-4.7704,-4.7753,-4.7793,-4.7811,-4.7871,-4.7895,-4.7943,-4.8001,-4.8069,-4.8113,-4.8179,-4.8279,-4.8295,-4.8321,-4.8328,-4.8334,-4.8342,-4.8397,-4.8409,-4.8282,-4.8282,-4.8282,0,0,-4.7486,-4.7539,-4.7578,-4.7677,-4.7723,-4.779,-4.7773,-4.7844,-4.7894,-4.7906,-4.7996,-4.8033,-4.8101,-4.8197,-4.8242,-4.823,-4.8381,-4.8341,-4.8346,-4.8351,-4.8405,-4.8417,-4.8427,-4.8286,-4.8286,-4.8285,0,0,-4.7564,-4.7611,-4.7683,-4.773,-4.78,-4.7832,-4.7849,-4.7921,-4.7946,-4.8037,-4.8047,-4.8108,-4.8224,-4.8272,-4.8311,-4.8409,-4.8413,-4.843,-4.8467,-4.8521,-4.8531,-4.854,-4.8574,-4.8586,-4.8438,-4.8439,-4.8439,0,-4.7585,-4.7687,-4.7719,-4.779,-4.7833,-4.7848,-4.7921,-4.7965,-4.8053,-4.8083,-4.8068,-4.8215,-4.8261,-4.8369,-4.8393,-4.8425,-4.8445,-4.842,-4.8527,-4.8536,-4.8545,-4.8578,-4.8591,-4.844,-4.844,-4.844,-4.844,0,-4.7709,-4.7779,-4.7829,-4.7913,-4.7962,-4.8034,-4.8077,-4.8123,-4.8139,-4.8172,-4.8265,-4.8322,-4.8399,-4.8427,-4.8442,-4.8537,-4.8527,-4.852,-4.8493,-4.8558,-4.859,-4.8603,-4.8442,-4.8442,-4.8441,-4.8441,0,0,-4.7789,-4.7892,-4.7909,-4.7948,-4.8027,-4.8082,-4.8155,-4.8231,-4.827,-4.8331,-4.8392,-4.8491,-4.8485,-4.853,-4.8551,-4.8598,-4.8672,-4.8585,-4.8587,-4.8598,-4.8779,-4.8783,-4.8797,-4.8676,-4.8678,-4.868,-4.8773,0,-4.7875,-4.8005,-4.8036,-4.8147,-4.8213,-4.8228,-4.8292,-4.8348,-4.8382,-4.8442,-4.848,-4.8549,-4.8536,-4.8563,-4.8611,-4.8652,-4.8708,-4.8647,-4.8733,-4.8736,-4.8714,-4.8813,-4.8818,-4.8902,-4.8785,-4.8788,-4.8789,0,-4.7993,-4.8056,-4.8173,-4.8244,-4.8273,-4.8329,-4.8402,-4.846,-4.8524,-4.8545,-4.8596,-4.8613,-4.869,-4.866,-4.8767,-4.8724,-4.8762,-4.8788,-4.8792,-4.88,-4.8765,-4.8823,-4.893,-4.8942,-4.8809,-4.8807,-4.8806,0,-4.8038,-4.8153,-4.8238,-4.8271,-4.8356,-4.8395,-4.8433,-4.8495,-4.8538,-4.8602,-4.8631,-4.8703,-4.8742,-4.8798,-4.8834,-4.8809,-4.8937,-4.8911,-4.8957,-4.8956,-4.8982,-4.8979,-4.9095,-4.9008,-4.9008,-4.9008,-4.9008,0,-4.813,-4.8201,-4.826,-4.8312,-4.8392,-4.8428,-4.8507,-4.8545,-4.8599,-4.8659,-4.8678,-4.8734,-4.8779,-4.8841,-4.887,-4.8953,-4.8971,-4.8991,-4.8997,-4.8988,-4.8985,-4.9012,-4.9006,-4.9011,-4.9011,-4.901,-4.9009,0,-4.8194,-4.8236,-4.833,-4.8403,-4.8423,-4.8479,-4.8542,-4.8593,-4.8628,-4.8704,-4.8724,-4.8779,-4.8853,-4.8895,-4.8989,-4.9008,-4.9101,-4.9105,-4.9079,-4.9082,-4.9125,-4.912,-4.9261,-4.9281,-4.9182,-4.9183,-4.9183,0,-4.8249,-4.8304,-4.8383,-4.8425,-4.8463,-4.8529,-4.8574,-4.8613,-4.8659,-4.8736,-4.8778,-4.8854,-4.8916,-4.9034,-4.9083,-4.9154,-4.916,-4.9204,-4.9171,-4.916,-4.9159,-4.9155,-4.916,-4.9209,-4.921,-4.9211,-4.9212,0,-4.8342,-4.836,-4.8424,-4.8496,-4.8549,-4.8608,-4.8665,-4.8698,-4.8747,-4.8798,-4.8874,-4.8922,-4.9018,-4.9092,-4.9168,-4.9207,-4.9218,-4.9222,-4.9237,-4.9227,-4.9209,-4.9218,-4.9093,-4.9218,-4.9218,-4.9217,-4.9217,-4.9217,-4.8403,-4.8452,-4.8516,-4.8586,-4.8634,-4.8688,-4.874,-4.8782,-4.8846,-4.8926,-4.8945,-4.9025,-4.9089,-4.9192,-4.9233,-4.9296,-4.9288,-4.9309,-4.9314,-4.9318,-4.9319,-4.92,-4.9311,-4.931,-4.931,-4.931,-4.931,0,-4.8496,-4.8538,-4.8602,-4.8683,-4.8739,-4.8744,-4.8809,-4.8855,-4.8925,-4.8983,-4.9044,-4.9132,-4.9205,-4.9259,-4.9334,-4.9374,-4.9381,-4.9392,-4.9389,-4.9397,-4.9323,-4.9302,-4.9386,-4.9386,-4.9386,-4.9385,-4.9385,-4.9385,-4.8551,-4.8634,-4.866,-4.8768,-4.881,-4.8888,-4.8925,-4.8974,-4.9021,-4.9118,-4.9178,-4.9214,-4.9271,-4.935,-4.9417,-4.9431,-4.9457,-4.9468,-4.9482,-4.9411,-4.9403,-4.9395,-4.9376,-4.9473,-4.9473,-4.9552,-4.9553,-4.9553]},{"header":{"parameterUnit":"m.s-1","parameterCategory":1,"la1":30.2991,"la2":30.254,"lo1":-89.0895,"lo2":-89.0444,"dy":0.0017,"dx":0.0017,"nx":28,"ny":28,"refTime":"2025-03-27T03:00:00:Z","depth":0,"parameterNumber":3,"parameterNumberName":"V-component_of_WINDS"},"data":[0,0,0,0,0,0,0,0,0,0,0,0,0,0,0,0,0,0,0,0,0,0,0,0,0,0,0,0,0,0,0,0,0,0,0,0,0,0,0,0,0,0,0,0,0,0,0,0,0,0,0,0,0,0,0,0,0,0,4.2301,4.2302,0,4.2356,4.2357,4.2357,4.2349,4.2348,4.2347,4.2346,4.2399,4.2401,4.2404,0,0,0,0,0,0,0,0,0,0,0,0,0,4.2187,4.2189,4.2301,4.2302,4.2303,4.2356,4.2357,4.2358,4.2349,4.2348,4.2347,4.2346,4.2399,4.2401,4.2404,0,0,0,0,0,0,0,0,0,0,0,0,0,4.2239,4.219,4.2301,4.2305,4.2306,4.2356,4.2357,4.2358,4.2349,4.2348,4.2346,4.2345,4.2398,4.2401,4.2404,4.2453,0,0,4.2415,4.2416,0,0,0,0,0,0,0,0,4.2236,4.2243,4.2304,4.2305,4.2306,4.2344,4.2336,4.239,4.235,4.2333,4.2346,4.2344,4.2382,4.2387,4.24,4.2456,4.2458,4.2415,4.2417,4.2419,4.242,0,0,0,0,0,0,0,4.2232,4.224,4.2323,4.2305,4.2306,4.2303,4.2309,4.2346,4.2364,4.2334,4.2334,4.234,4.2382,4.2397,4.2401,4.2459,4.2415,4.2418,4.242,4.2421,4.2559,4.2561,0,0,0,0,0,0,4.2228,4.2237,4.2321,4.2325,4.2267,4.2306,4.2313,4.2333,4.2364,4.2367,4.2341,4.234,4.2391,4.2397,4.2403,4.2464,4.2419,4.2422,4.2424,4.2557,4.2559,4.2561,0,0,0,0,0,0,4.2225,4.2235,4.2319,4.2281,4.2291,4.231,4.2333,4.2335,4.235,4.237,4.2372,4.2353,4.239,4.2398,4.2441,4.2465,4.2423,4.2426,4.2556,4.2558,4.256,4.2585,0,0,0,0,0,0,4.2222,4.2235,4.2254,4.2282,4.2294,4.2358,4.2334,4.2337,4.2356,4.2354,4.2381,4.2384,4.239,4.2436,4.2445,4.2469,4.2429,4.2554,4.2557,4.256,4.2582,4.2588,4.2593,0,0,0,0,0,4.2218,4.2258,4.2255,4.2265,4.2318,4.2359,4.2366,4.2372,4.2358,4.2377,4.239,4.2383,4.2461,4.2441,4.245,4.2476,4.2552,4.2556,4.2559,4.258,4.2587,4.2593,0,0,0,0,0,0,4.2231,4.2261,4.2259,4.2309,4.2331,4.2357,4.2382,4.2379,4.2406,4.2403,4.2409,4.2415,4.246,4.2472,4.2449,4.2526,4.2504,4.251,4.2517,4.2523,4.2529,4.2526,4.2432,0,0,0,0,0,4.224,4.2272,4.2296,4.2337,4.2349,4.2364,4.2381,4.2385,4.2408,4.2418,4.2434,4.2456,4.2486,4.2505,4.2533,4.2583,4.2589,4.2605,4.2611,4.2615,4.262,4.2649,4.2657,4.2573,4.2573,4.2573,0,0,4.2258,4.2279,4.2298,4.234,4.2359,4.2391,4.2372,4.2406,4.243,4.2422,4.2465,4.2478,4.2503,4.2551,4.2572,4.2562,4.2645,4.262,4.2623,4.2626,4.2654,4.2662,4.2669,4.2575,4.2575,4.2575,0,0,4.2309,4.2327,4.2365,4.2383,4.2412,4.2421,4.243,4.2457,4.2465,4.2508,4.2504,4.2531,4.2582,4.2601,4.2617,4.2675,4.267,4.2683,4.2712,4.274,4.2747,4.2753,4.2775,4.2783,4.2688,4.2688,4.2688,0,4.2328,4.2377,4.2384,4.242,4.2439,4.2434,4.2472,4.249,4.2525,4.2538,4.2526,4.2591,4.2607,4.266,4.2674,4.2686,4.2697,4.2681,4.2745,4.2751,4.2757,4.2778,4.2786,4.269,4.269,4.269,4.2689,0,4.24,4.2434,4.2461,4.2497,4.2519,4.2555,4.2567,4.2588,4.2589,4.26,4.2644,4.2664,4.2697,4.2709,4.2709,4.2762,4.2755,4.2744,4.2723,4.2767,4.2787,4.2795,4.2692,4.2692,4.2691,4.2691,0,0,4.2461,4.2501,4.2511,4.2528,4.2559,4.2585,4.2621,4.2654,4.2673,4.2697,4.2728,4.2771,4.2762,4.278,4.2782,4.2807,4.2853,4.2793,4.2794,4.2805,4.2913,4.2923,4.2932,4.285,4.2851,4.2852,4.2912,0,4.2516,4.2582,4.2589,4.2647,4.2679,4.2675,4.2707,4.2729,4.274,4.2768,4.2779,4.281,4.2795,4.2806,4.283,4.2843,4.2875,4.2838,4.2879,4.288,4.2875,4.2942,4.2952,4.3008,4.292,4.2921,4.2922,0,4.2589,4.2618,4.268,4.2707,4.2721,4.2749,4.2781,4.2807,4.2832,4.2838,4.2859,4.2859,4.2896,4.2872,4.2923,4.2898,4.2915,4.2923,4.2926,4.2931,4.2905,4.2951,4.3025,4.3034,4.2934,4.2933,4.2932,0,4.263,4.2683,4.2728,4.2742,4.2775,4.2795,4.2809,4.2833,4.2852,4.2879,4.2892,4.2922,4.294,4.2963,4.297,4.2952,4.3022,4.2998,4.3028,4.3028,4.3045,4.3044,4.3124,4.3052,4.3052,4.3052,4.3052,0,4.2692,4.273,4.2747,4.2774,4.2817,4.2824,4.2867,4.288,4.2901,4.293,4.2927,4.2955,4.2963,4.2992,4.2997,4.304,4.3047,4.3053,4.3055,4.3055,4.3054,4.3067,4.3064,4.3054,4.3054,4.3053,4.3053,0,4.2746,4.2758,4.2807,4.2834,4.2842,4.2872,4.2895,4.2921,4.2931,4.2969,4.2978,4.2994,4.3028,4.3038,4.3078,4.3082,4.3132,4.3129,4.3124,4.3125,4.3155,4.3153,4.3248,4.3261,4.3179,4.3179,4.318,0,4.2786,4.2815,4.2846,4.2867,4.2882,4.2915,4.2935,4.2943,4.2964,4.2995,4.3018,4.3051,4.3079,4.3133,4.3148,4.3179,4.3177,4.3209,4.3182,4.3182,4.318,4.3179,4.3183,4.3214,4.3215,4.3216,4.3216,0,4.2855,4.286,4.2891,4.2924,4.2949,4.2975,4.2999,4.3016,4.3027,4.3051,4.3087,4.3108,4.315,4.3184,4.3215,4.3229,4.3225,4.3224,4.3233,4.3234,4.3231,4.3235,4.314,4.3222,4.3222,4.3221,4.3221,4.3221,4.2905,4.2932,4.2958,4.2992,4.3012,4.3035,4.3062,4.3076,4.3106,4.3142,4.3144,4.3182,4.3206,4.3248,4.3263,4.3293,4.3284,4.3296,4.33,4.3303,4.3307,4.3225,4.3299,4.3298,4.3298,4.3298,4.3298,0,4.2976,4.2993,4.3025,4.306,4.3087,4.3081,4.3108,4.3131,4.3166,4.3189,4.3216,4.3257,4.329,4.3307,4.334,4.336,4.3359,4.3369,4.3368,4.3372,4.3312,4.3302,4.3369,4.3369,4.3369,4.3369,4.3369,4.3369,4.3017,4.3063,4.3071,4.3126,4.3142,4.3181,4.3197,4.3219,4.3238,4.3284,4.3312,4.3323,4.3343,4.3377,4.3407,4.3411,4.3424,4.3435,4.3438,4.3383,4.3376,4.3369,4.336,4.3437,4.3437,4.3495,4.3496,4.3496]}]]